000  
ASHW40 PHFO 271643  
RWRHI  
 
WEATHER ROUNDUP FOR HAWAII  
NATIONAL WEATHER SERVICE HONOLULU HI  
600 AM HST THU NOV 27 2014  
 
THIS IS AN AUTOMATED REPORT THAT HAS NOT BEEN QUALITY CONTROLLED.  
 
NOTE..."FAIR" INDICATES FEW OR NO CLOUDS BELOW 12,000 FEET WITH NO  
SIGNIFICANT WEATHER AND/OR S TO VISIBILITY
.  
 
* - THESE SITES REPORT LIMITED FIELDS  
 
HIZ001>004-271700-  
KAUAI-NIIHAU-  
 
CITY SKY/WX TMP DP RH WIND PRES REMARKS
 
LIHUE APT PTCLDY 73 58 59 NE18 30.10R  
PORT ALLEN* N/A 72 N/A N/A NE13G20 N/A  
POIPU* N/A 73 N/A N/A NE10G20 N/A  
PRINCEVILLE* N/A 72 N/A N/A MISG N/A  
KOKOLE POINT* N/A 66 N/A N/A MISG N/A  
MOLOAA DAIRY* NOT AVBL  
WAIMEA HTS* N/A 66 50 55 SE3 N/A  
PUU OPAE* N/A 63 50 63 E3G16 N/A  
PUU LUA* NOT AVBL  
MAKAHA RIDGE* NOT AVBL  

 
 
HIZ005>011-271700-  
OAHU-  
 
CITY SKY/WX TMP DP RH WIND PRES REMARKS
 
HONOLULU MOCLDY 75 60 59 NE12G23 30.05R  
KALAELOA PTCLDY 72 60 66 NE5 30.07R  
KANEOHE MCB CLOUDY 75 61 61 NE18 30.07R  
WHEELER FIELD FAIR 70 59 67 NE6 30.07R  
BELLOWS* N/A N/A N/A N/A NE23 N/A  
KAHUKU* N/A N/A N/A N/A NE8G21 N/A  
WHEELER* NOT AVBL  
WAIANAE HARBOR NOT AVBL  
DILLINGHAM* N/A 70 57 64 E3G12 N/A  
KAHUKU TRN* N/A 70 57 64 E12G28 N/A  
KAWAILOA* N/A 68 59 73 NE8G18 N/A  
KII* N/A N/A N/A N/A NE18G28 N/A  
MAKUA RANGE* N/A 73 59 60 E5G15 N/A  
OAHU FOREST NW N/A 63 12 14 CALM N/A  
SCHOFIELD BRK* N/A 66 57 72 MISG N/A  
SCHOFIELD S* NOT AVBL  
WAIANAE VLY* N/A 68 57 68 SE3G26 N/A  
KUAOKALA* N/A 70 57 64 CALM N/A  
HONOULIUULI* NOT AVBL  
MOKUOLOE IS* N/A N/A N/A N/A MISG N/A  
PALEHUA* N/A 73 59 60 CALM N/A  
WAIAWA PHB* NOT AVBL  

 
 
HIZ012>013-271700-  
MOLOKAI-  
 
CITY SKY/WX TMP DP RH WIND PRES REMARKS
 
MOLOKAI AIRPT MOCLDY 70 63 78 NE15G25 30.05F  
KALAUPAPA NOT AVBL  
MAKAPULAPAI* N/A 75 64 69 E23G32 N/A  
MOLOKAI 1* N/A 61 57 88 SE3G20 N/A  
PUU ALII* N/A 55 55 100 E3G13 N/A  

 
 
HIZ016-271700-  
KAHOOLAWE-  
 
CITY SKY/WX TMP DP RH WIND PRES REMARKS
 
KAHOOLAWE* N/A 66 N/A N/A N7 N/A  
HAKIOAWA* NOT AVBL  
HONOKANAIA* N/A 72 63 73 VRB15G28 30.03F  
KANELOA* N/A 70 63 78 N12G22 29.24S  
KEALIALALO* NOT AVBL  
LUA MAKIKA* NOT AVBL  

 
 
HIZ014>015-271700-  
LANAI-  
 
CITY SKY/WX TMP DP RH WIND PRES REMARKS
 
LANAI CITY PTCLDY 66 63 88 E18 30.04F  
LANAI 1* N/A 68 68 100 NE26G46 N/A  

 
 
HIZ017>028-271700-  
MAUI-  
 
CITY SKY/WX TMP DP RH WIND PRES REMARKS
 
KAHULUI PTCLDY 72 63 73 NE15 30.05S  
KAPALUA-W MAUI LGT RAIN 72 64 78 NE17G25 30.04  
HANA AIRPORT CLOUDY 72 63 73 N1G23 30.11R  
HANA* N/A 73 N/A N/A NE12G17 N/A  
HALEAKALA SUMM N/A 48 14 25 NE13 N/A  
MAALAEA BAY* NOT AVBL  
HALEAKALA* NOT AVBL  
KAUPO GAP* N/A 57 45 62 NW3G10 N/A  
KULA 1* N/A 53 7 15 E3G9 N/A  

 
 
HIZ023>026-271700-  
BIG ISLAND OF HAWAII COAST AND LOWER SLOPES-  
 
CITY SKY/WX TMP DP RH WIND PRES REMARKS
 
KAILUA KONA CLEAR 72 61 68 E3 29.96F  
HILO PTCLDY 70 65 84 W3 30.06R  
HONOKAA* NOT AVBL  
KAWAIHAE MWT* N/A 75 N/A N/A E9G17 N/A  
KAWAIHAE* N/A 75 N/A N/A NE2G8 N/A  
SOUTH POINT* N/A 63 N/A N/A N7 N/A  
UPOLU AIRPORT* N/A N/A N/A N/A NE24G31 N/A  
KAMUELA* LGT RAIN 59 59 100 NE28 30.09F  
HAKALAU* N/A N/A N/A N/A W5 N/A  
KALOKO-HONOKO* N/A 72 64 78 NE3 29.95F  
PALI 2* N/A 61 57 88 N18G28 N/A  
KEALAKOMO* N/A 73 63 68 N26G45 N/A  
KAUPULEHU* N/A 66 57 72 SE7 N/A  
KAPAPALA* NOT AVBL  
LOWER KAHUKU* N/A 55 52 88 N3G9 N/A  
PUHE CS* NOT AVBL  
PUHO CS* N/A 70 58 65 E3 N/A  
PTA KEAMUKU* N/A 59 54 82 CALM N/A  
WAIKOLOA* N/A 70 57 64 E20G32 N/A  

 
 
HIZ027>028-271700-  
BIG ISLAND OF HAWAII INTERIOR AND SUMMMITS-  
 
CITY SKY/WX TMP DP RH WIND PRES REMARKS
 
BRADSHAW FIELD CLOUDY 40 24 52 SE8 30.31S  
MK VISITOR CEN N/A 0 0 100 MISG N/A  
MAUNA KEA* N/A 39 3 22 CALM N/A  
MAUNA LOA* N/A 39 10 30 MISG N/A  
MAUNA LOA 1* NOT AVBL  
PTA KIPUKA* N/A 46 43 87 SE5G10 N/A  
PTA RANGE 17* N/A 48 41 76 E7 N/A  
PTA WEST* N/A 52 46 82 SE12 N/A  
NENE CABIN* N/A N/A N/A N/A VRB6 N/A  
AHUMOA* N/A N/A N/A N/A E6 N/A  
PTA PORTABLE* NOT AVBL  
PUU MALI* NOT AVBL  

 
 
HIC003-271700-  
NORTHWEST ISLANDS-  
 
CITY SKY/WX TMP DP RH WIND PRES REMARKS
 
MIDWAY ISLAND MOCLDY 75 66 73 SE17 30.07R  
MIDWAY NOS* NOT AVBL  
FRENCH FRIGATE NOT AVBL  

 
 
PHZ110>124-180-271700-  
BUOY REPORTS  
 
STATION/POSITION TIME TEMP WIND PRES WAVE SWELL
 
AIR SEA DIR/SP/G HT/PER HT/DIR  
(UTC) (F) (DEG/KT/KT) (MB) (FT/S) (FT/D)  
BUOY 51001 NOT AVBL  
BUOY 51101 1600 75 77 60/ 16/ 19 1020.2R 8/14 7/ 10  
BUOY 51100 NOT AVBL  
BUOY 51003 1600 78 80 50/ 17/ 21 1015.4R 10/13 7  
BUOY 51004 1529 78 80 60/ 19/ 21 1013.5F 10/14 8/340  
BARBERS PT BUOY NOT AVBL  
WAIMEA BAY BUOY 1600 79 N/A 9/12 5/350  
KAILUA BAY BUOY 1600 79 N/A 10/10 5/ 10  
LANAI BUOY 1600 79 N/A 2/14 2/300  
BARBERS PT 2 1600 78 N/A 4/11 2/310  
PAUWELA MAUI 1600 79 N/A 10/12 7/360  
HILO 1600 79 N/A 11/13 8/360  
KANEOHE BAY BUOY 1600 78 N/A 9/11 5/ 10  
HANALEI KAUAI NOT AVBL  
KAHULUI HARBOR 1600 75 77 40/ 13/ 20 1017.5F  
HONOLULU HARBOR 1600 75 90/ 4/ 8 1017.9R  
KILO NALU NOT AVBL  
HILO HARBOR 1600 74 300/ 7/ 9 1017.4R  
MOKUOLOE 1600 75 60/ 13/ 16 N/A  
NAWILIWILI 1600 78 N/A  
WHOTS BUOY NOT AVBL  
BUOY 51028 NOT AVBL  

 
   
.....................KEY.....................................
 
 
SKY/WX - SKY CONDITIONS/PRESENT WEATHER  
TMP - TEMPERATURE IN FAHRENHEIT  
DWPT - DEWPOINT IN FAHRENHEIT  
RH - RELATIVE HUMIDITY IN PERCENT  
WIND - DIRECTION AND SPEED /MPH FOR ISLANDS...KTS FOR BUOYS/  
PRES - MEAN SEA LEVEL PRESSURE IN INCHES OF HG  
VSB - VISIBILITY IN MILES  
HX - HEAT INDEX  
WCI - WIND CHILL INDEX  
VRB - VARIABLE WIND DIRECTION  
N/A - NOT AVAILABLE  
 
CLICK HERE TO GO TO PREVIOUS BULLETINS.

The Nexlab HI Page Main Text Page

The Nexlab HI Page Main Text Page